Overview Statistics Trail Chart Weather Telemetry Raw packets
 

This is the latest recevied weather packets stored in our database for station/object DN9EM-3. If no packets are shown the sender has not sent any weather packets the latest 10 day(s).

<< 2 3 4 5 6 7 8 >>
Time Temp. Humidity Pressure Rain* Wind** Luminosity Snow
1788517839 17.22° C 94% 1004.5 hPa 8.38 mm - - -
1788517236 17.22° C 94% 1004.9 hPa 7.62 mm - - -
1788516634 17.22° C 94% 1004.8 hPa 8.89 mm - - -
1788516031 17.22° C 94% 1005.3 hPa 9.65 mm - - -
1788515429 17.22° C 94% 1005.7 hPa 11.18 mm - - -
1788514840 16.67° C 94% 1005.8 hPa 11.18 mm - - -
1788514224 16.67° C 94% 1006.2 hPa 12.95 mm - - -
1788513621 16.67° C 94% 1006.5 hPa 14.22 mm - - -
1788513019 16.67° C 94% 1006.5 hPa 13.21 mm - - -
1788512416 16.67° C 94% 1006.8 hPa 13.21 mm - - -
1788511873 16.67° C 94% 1006.8 hPa 11.43 mm - - -
1788511271 16.67° C 94% 1006.7 hPa 11.18 mm - - -
1788510668 16.67° C 93% 1007.1 hPa 10.16 mm - - -
1788510075 17.22° C 94% 1007.3 hPa 7.11 mm - - -
1788509463 17.22° C 94% 1007.2 hPa 6.86 mm - - -
1788508860 17.22° C 93% 1007.4 hPa 5.33 mm - - -
1788508258 17.78° C 93% 1007.4 hPa 4.83 mm - - -
1788507655 17.78° C 93% 1007.6 hPa 4.57 mm - - -
1788507053 17.78° C 93% 1007.6 hPa 2.29 mm - - -
1788506450 17.78° C 93% 1007.8 hPa 2.29 mm - - -
1788505848 17.78° C 93% 1008 hPa 1.52 mm - - -
1788505245 17.78° C 93% 1007.9 hPa 1.27 mm - - -
1788504643 17.78° C 93% 1008.1 hPa 1.02 mm - - -
1788504040 17.78° C 93% 1008.1 hPa 0.51 mm - - -
1788503438 17.78° C 93% 1008.2 hPa 0.51 mm - - -

* Rain latest hour (hover to see other rain measurements)
** Current wind speed in m/s (hover to see current wind gust speed)